Temp
8 8 9 9 9 9 10 10 9 10 11 11 12 12 13 13 15 15 16 18 17 17 17 17 17 17 16 16 17 16 17 17 17 16 20 18 18 16 16 15 15 15 15 15 14
7 7 7 8 9 9 9 9 9 9 10 11 11 12 13 13 14 17 17 18 17 17 17 17 17 16 16 16 16 17 16 17 17 17 19 19 17 17 16 15 15 15 15 15 14
6 6 6 7 7 8 8 9 9 9 9 10 11 12 12 13 14 16 16 16 17 16 16 17 17 16 15 15 15 14 18 16 17 17 17 17 16 15 16 17 15 15 15 14 13
5 5 6 5 6 7 7 8 9 9 9 9 10 11 12 12 14 15 15 15 16 15 16 16 16 16 16 16 15 16 16 17 18 18 16 16 15 15 15 16 16 15 15 13 12
4 4 4 5 6 5 6 7 8 9 9 8 9 11 12 10 13 16 15 15 15 15 16 16 16 16 16 16 15 16 18 16 18 17 16 15 16 16 15 16 14 15 13 11 11
3 4 4 4 5 6 6 6 8 8 8 8 8 10 9 6 14 15 15 16 15 15 15 16 17 17 16 16 17 17 16 17 17 17 16 16 16 14 16 15 14 14 12 10 10
2 3 4 4 5 5 5 6 7 7 7 9 9 9 7 12 14 14 14 15 14 15 15 16 16 16 16 16 17 16 17 17 18 17 17 15 17 15 15 14 11 11 12 10 10
3 3 3 3 4 4 5 6 7 8 8 9 9 9 7 13 14 15 14 14 14 14 14 15 15 15 16 16 15 17 16 17 18 15 15 16 19 17 14 12 11 10 10 10 9
2 3 3 3 3 4 5 6 7 8 8 8 9 9 7 11 13 14 14 14 15 13 14 14 14 15 15 16 16 14 17 15 17 16 16 16 18 17 13 12 13 11 10 10 9
2 3 3 3 3 3 4 5 7 6 6 6 6 9 11 11 13 13 13 13 13 14 12 13 13 15 14 16 16 16 15 15 16 16 16 16 17 18 13 12 14 12 10 10 9
2 2 3 2 3 3 4 5 6 5 5 5 5 9 11 10 11 13 13 13 12 13 13 12 14 14 15 15 15 15 15 16 16 16 16 17 17 18 15 12 13 13 11 10 10
2 2 2 2 3 3 3 3 2 2 2 4 7 6 10 11 6 12 12 12 12 13 13 13 13 15 14 15 16 16 16 16 16 16 16 18 18 19 16 15 14 14 12 10 10
1 2 2 2 2 3 3 2 2 2 3 5 6 5 7 9 7 9 11 12 13 12 13 14 15 15 15 14 15 15 15 15 16 15 16 16 18 18 18 14 13 13 13 12 12
1 1 2 2 2 2 3 2 3 3 4 6 6 7 8 9 8 11 11 13 12 13 13 14 15 14 15 15 15 15 15 16 15 16 17 16 17 18 19 17 15 15 13 12 11
1 1 1 1 2 2 2 2 3 4 5 11 9 10 10 10 12 11 12 12 13 13 13 14 13 14 14 15 15 17 15 15 15 15 15 16 16 18 16 19 20 18 14 14 14
0 1 1 1 1 2 2 3 4 4 6 10 11 10 10 10 11 11 11 12 14 13 13 15 14 15 17 15 15 16 16 15 14 14 14 16 17 18 18 19 19 19 16 14 14
0 1 0 1 1 1 2 3 4 4 9 10 10 11 11 11 11 12 11 11 13 12 12 14 14 15 15 15 14 16 16 15 14 14 15 15 15 19 19 19 18 19 19 16 15
0 0 1 1 1 2 1 2 3 8 8 10 10 10 10 12 12 12 11 11 13 13 13 13 13 14 15 15 15 15 16 15 15 14 16 14 16 19 19 18 17 17 16 16 15
-0 0 0 2 1 2 1 2 5 6 8 7 9 10 10 12 11 12 11 11 13 13 13 13 14 14 14 15 16 14 14 16 14 12 14 16 16 18 19 19 18 18 16 15 13
-1 -0 1 2 2 1 1 3 4 7 7 7 7 8 8 9 10 11 11 11 12 13 14 13 13 15 16 16 15 16 16 15 13 15 14 15 15 18 19 20 19 18 18 16 14
-1 -0 1 2 2 1 2 2 4 6 6 6 6 7 7 8 9 10 11 11 11 11 13 13 14 14 15 15 15 15 15 15 16 14 16 15 16 16 19 19 18 18 17 17 17
-2 -0 1 1 1 1 2 2 4 5 6 6 7 7 7 8 8 9 9 10 9 11 12 13 12 12 14 15 15 16 16 16 15 14 12 13 17 16 17 17 16 17 18 19 20
-1 -0 1 1 1 1 2 2 4 5 6 6 6 6 7 7 8 8 8 10 9 11 11 12 12 12 13 14 14 15 15 15 13 12 15 14 16 16 16 17 17 16 19 20 20
-1 -0 -0 0 1 2 2 2 3 3 4 5 5 6 6 6 8 8 8 9 9 10 11 11 11 11 12 12 12 13 14 15 16 13 14 14 16 17 17 18 20 18 20 20 21
-1 -1 0 0 0 1 3 3 3 4 4 4 5 5 6 6 6 7 8 8 9 9 10 10 10 10 11 11 11 12 13 14 14 15 15 16 15 17 16 17 19 18 18 18 20
-1 -0 -0 1 1 1 1 3 4 4 5 4 4 5 5 5 6 6 6 7 7 8 8 8 10 9 10 11 12 12 13 13 14 14 14 15 15 16 17 16 15 17 17 18 19
-1 -1 -0 2 1 1 2 3 4 5 4 5 5 4 4 5 5 5 5 6 6 6 7 7 8 9 10 9 11 11 12 13 13 14 14 14 15 17 17 16 15 17 17 17 20
Height
1524 1523 1521 1520 1518 1517 1514 1512 1511 1510 1506 1503 1500 1499 1498 1494 1492 1491 1487 1487 1487 1488 1489 1491 1493 1495 1498 1498 1499 1502 1506 1505 1503 1505 1493 1492 1492 1491 1489 1489 1488 1487 1487 1486 1484
1522 1521 1519 1517 1516 1515 1514 1511 1507 1507 1505 1502 1499 1495 1494 1490 1486 1484 1483 1479 1483 1485 1486 1487 1489 1493 1496 1495 1497 1499 1501 1497 1494 1494 1491 1488 1490 1488 1488 1486 1485 1484 1484 1484 1482
1519 1519 1517 1514 1513 1511 1511 1510 1506 1503 1502 1500 1498 1493 1491 1488 1484 1480 1479 1476 1477 1480 1487 1487 1489 1491 1493 1493 1493 1495 1492 1491 1489 1489 1489 1488 1486 1485 1483 1482 1480 1481 1481 1482 1480
1517 1515 1513 1513 1510 1508 1507 1505 1504 1500 1500 1497 1495 1490 1488 1487 1488 1479 1479 1476 1477 1480 1484 1485 1487 1488 1489 1488 1489 1491 1487 1488 1485 1485 1487 1486 1483 1482 1480 1478 1478 1478 1480 1481 1479
1514 1513 1510 1507 1504 1505 1503 1502 1500 1497 1496 1493 1493 1488 1486 1486 1478 1480 1479 1478 1478 1480 1482 1482 1485 1484 1485 1484 1486 1486 1484 1484 1482 1483 1482 1482 1480 1479 1473 1475 1476 1476 1478 1479 1478
1513 1511 1509 1506 1501 1498 1499 1499 1495 1493 1491 1490 1489 1486 1485 1485 1475 1474 1474 1477 1477 1478 1480 1480 1482 1481 1482 1481 1481 1479 1480 1481 1479 1478 1479 1478 1477 1478 1469 1471 1473 1474 1475 1476 1476
1511 1510 1507 1505 1501 1494 1493 1492 1492 1489 1485 1485 1484 1481 1479 1471 1473 1471 1472 1473 1472 1474 1476 1478 1480 1480 1479 1478 1477 1477 1480 1478 1474 1474 1475 1475 1474 1471 1468 1469 1471 1474 1474 1474 1474
1508 1506 1505 1504 1498 1493 1486 1488 1486 1483 1480 1478 1478 1475 1468 1466 1466 1464 1467 1466 1468 1470 1473 1475 1477 1478 1478 1477 1477 1477 1481 1481 1471 1473 1473 1474 1466 1464 1464 1467 1469 1472 1473 1472 1473
1504 1502 1504 1501 1496 1490 1483 1483 1482 1477 1475 1473 1473 1471 1467 1463 1461 1460 1458 1459 1463 1467 1470 1472 1474 1475 1476 1476 1478 1479 1477 1480 1472 1469 1471 1472 1464 1461 1463 1465 1467 1469 1469 1471 1471
1500 1500 1501 1498 1493 1488 1482 1480 1477 1474 1472 1473 1466 1470 1465 1464 1462 1459 1457 1456 1459 1463 1469 1470 1471 1471 1472 1470 1471 1472 1477 1478 1474 1470 1470 1469 1464 1456 1462 1462 1463 1465 1466 1468 1468
1497 1498 1497 1496 1491 1487 1481 1477 1478 1477 1471 1468 1466 1458 1455 1463 1460 1456 1456 1454 1457 1461 1462 1465 1467 1460 1459 1460 1464 1465 1470 1472 1468 1468 1469 1466 1464 1453 1457 1457 1458 1459 1461 1463 1465
1494 1497 1493 1493 1489 1487 1483 1482 1485 1486 1469 1460 1455 1457 1450 1457 1458 1451 1454 1456 1455 1454 1458 1464 1455 1455 1462 1463 1462 1464 1466 1467 1464 1463 1466 1459 1457 1447 1451 1450 1450 1453 1456 1458 1461
1490 1494 1492 1490 1487 1487 1485 1484 1485 1482 1476 1448 1443 1442 1439 1446 1446 1440 1452 1452 1451 1453 1451 1447 1444 1451 1456 1461 1462 1462 1463 1466 1465 1465 1461 1462 1454 1449 1445 1447 1446 1447 1450 1452 1455
1488 1491 1490 1487 1488 1486 1486 1485 1484 1482 1473 1447 1439 1435 1434 1440 1441 1432 1445 1451 1448 1445 1449 1449 1447 1447 1449 1453 1455 1460 1456 1460 1465 1468 1465 1460 1462 1451 1443 1443 1443 1442 1445 1446 1449
1484 1488 1488 1485 1485 1486 1487 1484 1482 1482 1473 1436 1435 1433 1433 1437 1433 1429 1435 1442 1440 1441 1444 1442 1441 1445 1449 1445 1451 1448 1451 1457 1463 1467 1468 1462 1463 1445 1446 1439 1434 1433 1434 1438 1442
1482 1484 1484 1483 1483 1484 1483 1482 1481 1482 1465 1437 1433 1433 1434 1435 1431 1430 1430 1435 1435 1439 1440 1436 1436 1437 1434 1442 1443 1446 1451 1457 1465 1467 1471 1457 1458 1442 1440 1434 1431 1428 1429 1432 1436
1479 1479 1480 1480 1482 1481 1482 1481 1480 1475 1447 1439 1437 1433 1429 1427 1427 1427 1428 1431 1429 1440 1441 1436 1434 1432 1433 1440 1445 1443 1448 1462 1469 1471 1461 1454 1459 1436 1429 1426 1428 1425 1424 1427 1430
1475 1474 1474 1476 1478 1480 1481 1483 1476 1453 1451 1441 1438 1431 1428 1420 1421 1421 1425 1429 1426 1424 1429 1435 1442 1431 1427 1429 1434 1439 1440 1449 1460 1461 1453 1457 1448 1431 1422 1422 1422 1421 1420 1422 1423
1469 1469 1468 1471 1475 1477 1479 1478 1461 1457 1453 1450 1439 1432 1427 1422 1423 1418 1422 1426 1422 1422 1425 1431 1430 1422 1423 1424 1427 1438 1443 1434 1450 1461 1457 1446 1438 1426 1418 1417 1419 1417 1416 1417 1419
1465 1465 1461 1466 1471 1473 1472 1463 1462 1457 1456 1453 1449 1442 1438 1431 1427 1421 1421 1423 1420 1417 1417 1421 1427 1417 1417 1423 1425 1426 1429 1441 1448 1451 1456 1446 1445 1431 1420 1415 1415 1415 1414 1415 1417
1463 1462 1457 1460 1465 1467 1458 1459 1458 1454 1458 1456 1453 1450 1445 1439 1434 1430 1426 1424 1422 1418 1414 1417 1418 1423 1418 1421 1423 1428 1428 1430 1431 1438 1438 1444 1436 1421 1415 1414 1416 1413 1412 1412 1414
1460 1458 1454 1456 1461 1458 1454 1453 1454 1452 1454 1454 1452 1450 1446 1440 1436 1431 1429 1426 1425 1418 1417 1415 1422 1427 1421 1415 1416 1419 1419 1421 1428 1440 1443 1442 1428 1413 1412 1413 1414 1411 1411 1410 1410
1453 1451 1452 1454 1450 1451 1451 1450 1450 1450 1450 1451 1450 1451 1448 1445 1442 1436 1434 1428 1426 1422 1424 1420 1421 1429 1425 1419 1418 1418 1417 1420 1427 1431 1427 1436 1427 1411 1411 1410 1408 1409 1408 1409 1409
1449 1445 1445 1445 1444 1445 1444 1448 1448 1447 1449 1451 1452 1451 1449 1447 1443 1439 1437 1431 1429 1426 1422 1422 1423 1423 1424 1425 1425 1422 1418 1415 1416 1429 1426 1425 1421 1415 1410 1409 1405 1404 1404 1405 1406
1439 1436 1437 1434 1437 1439 1437 1437 1440 1442 1445 1447 1448 1449 1448 1447 1445 1440 1435 1434 1430 1429 1426 1426 1429 1427 1425 1424 1425 1424 1419 1416 1418 1416 1420 1416 1419 1412 1410 1407 1404 1404 1400 1400 1400
1430 1431 1433 1431 1431 1434 1434 1430 1432 1438 1440 1444 1445 1444 1444 1444 1441 1440 1439 1437 1435 1433 1431 1431 1429 1430 1427 1422 1420 1419 1414 1413 1413 1415 1416 1415 1413 1408 1404 1403 1403 1400 1398 1397 1394
1423 1425 1429 1424 1426 1425 1423 1424 1427 1433 1437 1439 1442 1443 1443 1442 1443 1441 1441 1441 1440 1441 1439 1436 1434 1432 1426 1428 1422 1421 1415 1412 1411 1412 1412 1417 1410 1405 1401 1399 1397 1395 1394 1392 1391
Wind_Speed
17 19 20 21 21 21 21 21 25 25 23 21 19 20 21 24 23 23 24 17 13 13 16 18 16 16 17 11 8 6 2 4 5 6 5 5 5 5 5 5 5 7 10 11 14
17 19 20 22 23 24 25 25 23 25 27 25 23 20 19 25 24 24 14 16 16 15 22 21 20 18 9 9 8 5 4 8 6 6 6 11 8 7 4 5 6 10 15 13 12
17 18 19 21 23 26 27 26 27 26 26 28 25 23 20 21 21 3 9 9 16 16 19 16 14 16 7 7 8 6 7 6 6 15 11 7 5 5 5 8 10 7 8 9 8
17 19 19 22 22 23 26 29 27 27 27 27 28 25 20 18 5 1 5 8 11 21 17 15 18 10 6 7 9 4 11 8 6 6 3 4 3 4 12 4 3 6 7 7 6
18 20 21 23 26 26 26 28 29 25 25 26 28 26 22 12 17 14 5 7 11 17 16 15 18 9 7 6 8 6 8 7 16 12 11 6 9 6 11 11 9 7 8 8 5
19 20 21 22 23 24 27 27 28 27 23 25 24 27 17 7 8 8 11 21 17 15 17 16 11 14 7 6 7 6 10 11 10 13 6 6 3 2 3 13 12 10 9 7 5
18 20 21 22 23 24 27 29 28 26 26 20 24 26 20 28 16 27 19 16 15 20 21 20 13 9 9 3 8 2 6 7 9 5 4 7 6 9 7 12 13 12 11 7 6
18 19 20 22 23 25 26 29 30 27 25 20 20 22 15 23 25 32 23 22 14 18 20 14 14 11 5 3 2 3 1 5 1 5 2 6 13 3 3 15 14 14 13 8 7
17 18 21 23 25 26 27 30 26 25 21 13 15 11 15 16 18 14 15 22 18 18 17 6 13 7 6 4 2 0 6 6 6 4 3 5 8 0 4 13 14 16 14 12 9
17 19 21 23 24 27 28 29 18 10 10 1 7 5 13 13 10 6 5 8 10 22 13 9 6 4 4 10 11 8 5 4 5 1 2 4 15 16 9 14 15 15 15 15 14
16 18 20 22 24 25 27 27 7 4 11 10 11 7 13 9 18 9 6 3 8 15 10 7 8 15 19 14 5 7 5 4 5 5 3 6 13 18 8 12 14 15 16 17 17
15 17 18 21 21 22 19 5 6 9 15 27 30 32 35 22 14 15 9 5 8 10 9 5 19 14 8 8 11 6 6 9 10 2 8 10 14 15 5 6 12 17 17 17 17
14 16 18 19 19 16 11 2 4 19 7 21 21 19 33 37 32 38 18 6 6 9 18 19 5 15 14 8 11 11 13 7 10 6 3 5 5 6 2 4 7 13 15 16 21
14 16 16 16 14 6 7 7 14 17 5 7 5 6 11 14 11 49 26 20 6 14 8 14 8 13 12 16 14 15 12 8 7 4 4 3 7 6 7 7 7 13 17 18 21
15 17 15 12 14 14 13 13 11 6 6 1 3 1 9 15 6 5 32 24 19 7 7 9 10 12 13 11 14 11 9 11 7 6 3 2 4 4 2 7 10 10 19 23 25
15 16 16 14 13 14 13 9 4 2 7 6 1 1 6 11 6 3 14 13 17 4 3 9 4 10 19 7 18 8 5 4 3 2 5 7 5 5 3 6 4 6 9 18 25
15 15 16 14 11 9 11 8 2 5 6 5 6 5 6 6 6 6 10 16 9 12 12 6 8 2 5 6 7 5 8 3 4 5 5 3 6 13 9 13 10 12 15 12 22
15 17 18 17 14 12 5 1 7 4 6 8 8 12 4 3 6 8 9 12 11 3 9 10 6 11 5 6 9 18 13 6 8 6 4 2 6 5 9 8 10 15 16 12 19
16 20 21 17 14 12 8 4 3 5 4 9 15 3 4 5 4 3 7 3 9 8 7 9 9 3 5 5 8 6 10 6 5 2 1 4 5 8 8 9 4 10 6 8 17
16 19 26 18 14 16 7 9 6 3 5 5 3 6 6 8 10 5 5 8 4 9 3 6 3 5 11 3 3 5 9 5 0 7 8 3 4 6 7 10 8 9 6 6 10
13 7 10 9 15 12 5 6 5 18 9 3 3 5 5 5 5 6 5 5 11 8 6 3 0 1 6 7 12 7 8 2 4 3 8 6 5 7 11 8 7 7 12 5 9
11 4 8 12 10 4 3 7 7 5 3 4 2 4 3 5 5 6 7 6 13 13 3 3 2 3 4 2 4 4 8 10 5 5 1 1 8 3 9 7 7 12 12 9 8
8 12 14 15 6 10 3 5 5 5 4 0 1 2 2 3 4 4 5 8 18 10 6 5 3 2 4 3 3 5 5 4 2 1 12 7 4 2 5 10 10 12 11 9 8
8 3 11 19 16 12 8 7 6 7 5 5 3 2 3 3 2 4 4 6 14 7 15 3 2 1 4 3 3 2 3 9 11 4 5 6 7 5 6 9 14 14 17 12 13
11 6 7 4 12 11 14 12 13 8 8 4 4 11 6 5 4 5 6 5 9 12 6 5 2 4 5 4 3 3 8 9 9 11 10 9 9 10 7 9 16 17 26 22 18
8 7 9 8 6 16 12 13 14 11 8 4 7 2 7 7 6 4 5 4 3 7 7 8 1 1 2 4 2 6 8 6 6 4 7 10 10 9 16 13 14 23 25 25 32
23 23 11 9 6 7 5 12 15 11 6 14 5 6 9 11 10 14 15 14 12 7 5 4 1 1 2 4 5 1 2 1 1 1 3 4 10 13 12 10 12 22 23 26 25
Wind_Direction
323 327 328 330 332 334 331 331 326 320 317 317 316 316 317 313 307 301 285 284 262 228 203 195 191 189 188 183 175 163 177 217 212 187 257 245 286 275 261 226 229 227 248 271 285
319 321 323 325 326 327 328 328 327 325 320 315 315 314 318 315 316 305 288 257 231 226 201 193 187 183 182 177 173 178 210 217 202 205 260 292 276 271 216 212 239 247 261 274 279
316 317 318 321 322 321 319 319 320 326 325 318 313 311 319 319 321 319 303 240 204 199 197 190 194 172 179 169 176 178 233 201 234 236 257 278 272 215 214 242 233 222 264 257 254
312 312 315 319 320 322 322 314 313 315 325 325 313 307 314 320 295 328 96 116 172 168 183 185 179 175 178 184 183 198 249 223 262 242 238 251 247 234 215 248 216 220 243 241 255
321 321 320 318 315 321 320 318 310 308 312 327 316 304 310 302 266 264 229 143 171 189 192 186 186 179 194 187 160 211 252 223 250 260 275 250 246 256 242 227 225 217 208 222 231
320 322 322 322 319 316 315 311 311 303 300 313 321 301 303 286 287 277 251 242 238 218 220 210 217 204 196 189 188 207 241 252 278 276 255 223 253 217 302 213 196 201 209 204 202
318 319 321 320 320 321 317 311 307 308 299 294 310 300 284 262 278 281 267 267 241 225 222 223 220 189 185 177 222 212 275 301 260 264 231 196 244 232 254 187 176 188 217 210 206
314 317 319 318 321 321 318 315 313 306 299 281 297 292 265 289 277 270 267 245 229 214 213 219 220 222 211 167 76 164 136 262 200 168 269 210 276 248 243 181 183 190 209 225 220
318 317 316 318 323 322 319 318 318 307 305 275 267 276 279 277 277 282 249 237 231 218 202 178 204 203 176 176 194 137 238 230 303 204 145 225 283 92 182 193 195 197 198 218 227
311 316 316 317 322 321 324 328 321 303 310 271 216 287 269 276 270 271 275 213 201 197 200 205 200 196 178 181 214 191 202 230 242 100 177 255 271 283 240 214 211 203 200 208 225
306 309 315 317 321 325 333 347 357 302 307 262 282 238 235 264 266 251 214 189 159 174 187 190 202 209 198 202 166 148 170 207 242 230 267 252 270 289 236 222 224 216 208 208 220
300 305 312 317 320 327 341 32 48 340 300 290 273 251 242 240 287 239 255 222 186 196 165 158 227 212 182 183 196 186 211 255 294 259 215 279 290 298 213 233 228 226 214 211 211
290 299 309 316 319 332 2 18 350 341 275 291 253 240 239 229 237 253 241 244 210 186 192 205 198 182 182 186 190 214 212 224 247 333 257 280 271 311 299 249 247 236 227 216 211
289 294 300 312 316 335 349 356 323 329 291 274 223 257 195 199 233 239 234 221 225 204 186 225 219 186 192 205 190 221 207 210 242 308 277 357 294 285 289 287 249 242 217 214 205
288 290 288 303 294 295 314 317 314 324 322 316 192 300 175 174 312 204 210 199 226 183 171 212 186 187 202 216 193 236 165 198 224 234 299 282 255 267 249 272 271 244 224 211 214
290 287 283 287 288 290 311 328 314 222 249 309 68 115 136 227 275 76 183 196 216 161 261 215 201 189 219 173 190 183 135 88 81 158 236 235 215 280 221 230 262 265 243 219 210
285 277 274 269 272 285 313 326 189 227 322 315 345 314 291 239 225 189 181 196 182 178 202 206 217 201 145 169 173 188 142 167 211 203 241 179 196 253 264 256 249 278 286 242 209
276 272 269 259 256 265 275 104 224 235 261 334 327 310 268 201 237 170 162 194 231 188 174 189 216 203 189 182 194 196 193 174 209 209 224 151 233 241 244 273 281 277 276 250 212
272 269 274 251 247 242 167 199 231 220 331 332 320 340 327 345 321 165 163 207 219 196 185 197 232 168 200 163 154 169 202 193 102 53 165 202 273 277 280 295 316 308 300 238 207
281 280 271 249 231 223 221 218 217 266 10 348 300 9 335 340 358 357 188 7 322 212 211 196 200 183 209 159 215 177 160 183 125 220 238 202 251 226 295 295 317 340 306 269 229
275 270 276 245 212 204 227 197 213 264 285 287 327 319 320 354 326 348 16 63 20 334 200 148 46 104 131 193 187 184 206 183 165 191 231 251 246 213 236 256 271 305 315 281 246
258 242 236 201 201 207 227 171 191 246 212 253 293 248 283 325 321 0 2 11 11 339 63 211 105 216 222 148 144 223 217 201 211 188 192 226 236 210 240 255 242 283 306 305 279
230 248 251 212 224 219 172 198 204 219 190 303 273 41 337 312 318 5 326 314 8 19 11 331 204 226 331 316 94 200 199 170 131 117 226 236 251 287 248 277 262 266 288 280 269
228 236 218 209 230 232 202 203 209 212 243 252 303 310 324 329 315 297 315 317 348 356 340 289 60 171 196 71 319 278 227 215 204 181 212 230 246 270 278 272 280 277 275 270 244
222 212 213 198 223 219 201 184 191 178 198 208 227 224 221 264 274 268 288 341 331 13 23 21 55 317 312 293 45 314 283 257 225 236 231 244 218 245 255 260 271 281 286 289 273
231 193 199 253 242 205 204 207 200 190 172 199 220 146 187 220 226 303 7 5 309 356 15 356 149 258 270 311 308 305 311 269 233 235 241 247 245 245 260 281 278 275 273 271 275
232 232 233 234 220 214 193 194 207 178 221 210 192 249 247 262 270 273 270 251 258 296 325 313 211 233 242 322 301 222 200 353 2 254 262 282 285 276 264 250 250 268 277 277 281